Weather History for Greenville, AL

Change the Weather History Date:

Wednesday, October 17, 2012

  Actual Average Record
Temperature  
Mean Temperature 66 °F -  
Max Temperature 79 °F 78 °F 89 °F (1985)
Min Temperature 53 °F 53 °F 32 °F (1977)
Cooling Degree Days 1    
Growing Degree Days 16 (Base 50)    
Moisture  
Dew Point 53 °F    
Average Humidity 68    
Maximum Humidity 93    
Minimum Humidity 39    
Precipitation  
Precipitation 0.00 in - - ()
Sea Level Pressure  
Sea Level Pressure 29.85 in    
Wind  
Wind Speed 3 mph (SSE)    
Max Wind Speed 9 mph    
Max Gust Speed 17 mph    
Visibility 10 miles    
Events      
Averages and records for this station are not official NWS values.
T = Trace of Precipitation, MM = Missing Value Source: NWS Daily Summary

Daily Weather History Graph

Daily Weather History Graph

Search for Another Location

Airport:

Trip Planner

Search our weather history database for the weather conditions in past years. The results will help you decide how hot, cold, wet, or windy it might be!

Date:

Astronomy

Oct. 17, 2012 Rise Set
Actual Time 6:51 AM CDT 6:11 PM CDT
Civil Twilight 6:26 AM CDT 6:35 PM CDT
Nautical Twilight 5:58 AM CDT 7:04 PM CDT
Astronomical Twilight 5:30 AM CDT 7:32 PM CDT
Moon 9:14 AM CDT (10/17) 7:58 PM CDT (10/17)
Length of Visible Light 12h 09m
Length of Day
11h 19m
Waxing Crescent, 7% of the Moon is Illuminated
Oct 17
Waxing Crescent
Oct 21
First Quarter
Oct 29
Full
Nov 6
Last Quarter
Nov 13
New

Hourly Weather History & Observations

Time (CDT) Temp. Dew Point Humidity Pressure Visibility Wind Dir Wind Speed Gust Speed Precip Events Conditions
12:56 AM 55.9 °F 54.0 °F 93% 29.89 in 10.0 mi Calm Calm - N/A   Clear
1:56 AM 57.0 °F 54.0 °F 89% 29.88 in 10.0 mi Calm Calm - N/A   Clear
2:56 AM 55.0 °F 53.1 °F 93% 29.86 in 10.0 mi Calm Calm - N/A   Clear
3:56 AM 55.0 °F 52.0 °F 89% 29.88 in 10.0 mi Calm Calm - N/A   Clear
4:56 AM 54.0 °F 52.0 °F 93% 29.90 in 10.0 mi Calm Calm - N/A   Clear
5:56 AM 53.1 °F 51.1 °F 93% 29.91 in 10.0 mi Calm Calm - N/A   Clear
6:56 AM 53.1 °F 50.0 °F 89% 29.91 in 10.0 mi Calm Calm - N/A   Clear
7:56 AM 55.9 °F 52.0 °F 87% 29.91 in 10.0 mi Calm Calm - N/A   Clear
8:56 AM 64.0 °F 53.1 °F 67% 29.92 in 10.0 mi Calm Calm - N/A   Clear
9:56 AM 69.1 °F 48.9 °F 49% 29.91 in 10.0 mi ESE 6.9 mph - N/A   Clear
10:56 AM 73.0 °F 48.0 °F 41% 29.91 in 10.0 mi SSE 4.6 mph - N/A   Clear
11:47 AM 75.2 °F 50.0 °F 41% 29.90 in 7.0 mi South 9.2 mph - N/A   Partly Cloudy
12:56 PM 77.0 °F 51.1 °F 40% 29.85 in 10.0 mi SSE 9.2 mph - N/A   Clear
1:56 PM 77.0 °F 51.1 °F 40% 29.81 in 10.0 mi South 9.2 mph - N/A   Clear
2:56 PM 79.0 °F 52.0 °F 39% 29.80 in 10.0 mi South 8.1 mph 17.3 mph N/A   Clear
3:56 PM 78.1 °F 52.0 °F 40% 29.79 in 10.0 mi SSW 8.1 mph - N/A   Clear
4:56 PM 77.0 °F 54.0 °F 45% 29.79 in 10.0 mi SSE 6.9 mph - N/A   Partly Cloudy
5:56 PM 73.9 °F 55.0 °F 52% 29.79 in 10.0 mi Calm Calm - N/A   Partly Cloudy
6:56 PM 70.0 °F 57.0 °F 63% 29.81 in 10.0 mi SSE 4.6 mph - N/A   Overcast
7:56 PM 68.0 °F 57.9 °F 70% 29.83 in 10.0 mi South 4.6 mph - N/A   Clear
8:56 PM 66.0 °F 57.9 °F 75% 29.83 in 10.0 mi South 5.8 mph - N/A   Clear
9:56 PM 64.0 °F 59.0 °F 84% 29.81 in 10.0 mi South 6.9 mph - N/A   Clear
10:56 PM 64.0 °F 59.0 °F 84% 29.79 in 10.0 mi South 6.9 mph - N/A   Clear
11:56 PM 63.0 °F 59.0 °F 87% 29.79 in 10.0 mi South 5.8 mph - N/A   Clear